Weather History for Topeka Forbes, KS

Change the Weather History Date:

Monday, December 9, 2013

  Actual Average Record
Temperature  
Mean Temperature 12 °F -  
Max Temperature 17 °F 42 °F 66 °F (1990)
Min Temperature 3 °F 24 °F -7 °F (2005)
Degree Days  
Heating Degree Days 54    
Moisture  
Dew Point 2 °F    
Average Humidity 71    
Maximum Humidity 84    
Minimum Humidity 50    
Precipitation  
Precipitation 0.00 in - - ()
Sea Level Pressure  
Sea Level Pressure 30.36 in    
Wind  
Wind Speed 8 mph (WNW)    
Max Wind Speed 15 mph    
Max Gust Speed -    
Visibility 10 miles    
Events      
Averages and records for this station are not official NWS values.
T = Trace of Precipitation, MM = Missing Value Source: NWS Daily Summary

Daily Weather History Graph

Daily Weather History Graph

Search for Another Location

Airport:

Trip Planner

Search our weather history database for the weather conditions in past years. The results will help you decide how hot, cold, wet, or windy it might be!

Date:

Astronomy

Dec. 09, 2013 Rise Set
Actual Time 7:29 AM CST 5:00 PM CST
Civil Twilight 7:00 AM CST 5:30 PM CST
Nautical Twilight 6:26 AM CST 6:03 PM CST
Astronomical Twilight 5:54 AM CST 6:35 PM CST
Moon 12:26 PM CST (12/9) No Moon Set
Length of Visible Light 10h 30m
Length of Day
9h 30m
Waxing Crescent, 51% of the Moon is Illuminated
Dec 9
Waxing Crescent
Dec 17
Full
Dec 25
Last Quarter
Jan 1
New
Jan 7
First Quarter

Hourly Weather History & Observations

Time (CST) Temp. Windchill Dew Point Humidity Pressure Visibility Wind Dir Wind Speed Gust Speed Precip Events Conditions
12:53 AM 10.9 °F -0.8 °F 7.0 °F 84% 30.25 in 10.0 mi WNW 8.1 mph - N/A   Clear
1:53 AM 9.0 °F -2.2 °F 5.0 °F 84% 30.26 in 10.0 mi WNW 6.9 mph - N/A   Clear
2:53 AM 8.1 °F -0.5 °F 3.0 °F 80% 30.28 in 9.0 mi WNW 4.6 mph - N/A   Clear
3:53 AM 6.1 °F -5.6 °F 1.9 °F 83% 30.28 in 10.0 mi NW 6.9 mph - N/A   Clear
4:53 AM 9.0 °F -4.2 °F 5.0 °F 84% 30.28 in 9.0 mi NW 9.2 mph - N/A   Clear
5:53 AM 10.9 °F -5.4 °F 5.0 °F 77% 30.32 in 10.0 mi NW 15.0 mph - N/A   Clear
6:53 AM 9.0 °F -7.3 °F 3.0 °F 77% 30.35 in 10.0 mi NW 13.8 mph - N/A   Clear
7:53 AM 8.1 °F -9.0 °F -0.0 °F 70% 30.38 in 10.0 mi NW 15.0 mph - N/A   Clear
8:53 AM 8.1 °F -9.0 °F -0.0 °F 70% 30.42 in 10.0 mi NNW 15.0 mph - N/A   Clear
9:53 AM 8.1 °F -7.7 °F -0.9 °F 67% 30.47 in 10.0 mi NNW 12.7 mph - N/A   Clear
10:53 AM 10.0 °F -2.9 °F -0.0 °F 64% 30.47 in 10.0 mi NNW 9.2 mph - N/A   Clear
11:53 AM 10.9 °F -1.8 °F 1.0 °F 64% 30.46 in 10.0 mi NW 9.2 mph - N/A   Clear
12:53 PM 12.0 °F 1.5 °F 1.9 °F 64% 30.41 in 10.0 mi NNW 6.9 mph - N/A   Clear
1:53 PM 15.1 °F 3.3 °F 1.9 °F 56% 30.39 in 10.0 mi North 9.2 mph - N/A   Clear
2:53 PM 15.1 °F 6.4 °F 1.0 °F 54% 30.37 in 10.0 mi NNE 5.8 mph - N/A   Clear
3:53 PM 17.1 °F 11.7 °F 1.0 °F 50% 30.36 in 10.0 mi NNW 3.5 mph - N/A   Clear
4:53 PM 14.0 °F - 1.9 °F 59% 30.37 in 10.0 mi Calm Calm - N/A   Clear
5:53 PM 10.0 °F 0.4 °F -0.0 °F 64% 30.36 in 10.0 mi SW 5.8 mph - N/A   Clear
6:53 PM 6.1 °F -2.8 °F -0.9 °F 73% 30.37 in 10.0 mi SSW 4.6 mph - N/A   Clear
7:53 PM 6.1 °F -4.3 °F -0.9 °F 73% 30.38 in 10.0 mi SW 5.8 mph - N/A   Clear
8:53 PM 7.0 °F -6.6 °F -0.0 °F 73% 30.38 in 10.0 mi SW 9.2 mph - N/A   Clear
9:53 PM 7.0 °F -5.7 °F -0.0 °F 73% 30.38 in 10.0 mi SW 8.1 mph - N/A   Clear
10:53 PM 9.0 °F -3.2 °F 1.9 °F 73% 30.35 in 10.0 mi SW 8.1 mph - N/A   Clear
11:53 PM 3.9 °F - -0.9 °F 80% 30.37 in 10.0 mi Calm Calm - N/A   Clear